DW8297 Weather Reports


time (UTC)temp
F
wind
direction
speed
knots
gust
knots
rain 1hr
in
rain 24hr
in
rain mn
in
humidity
%
barometer
mb
20260504151147 -39 138 0.9 3.5 0.00 0.00 0.00 88 1017.9
20260504140404 -39 277 1.7 4.3 0.00 0.00 0.00 88 1018.1
20260504100328 -39 7 0.0 0.0 0.00 0.00 0.00 88 1019.2
20260504081743 -39 7 0.0 0.0 0.00 0.00 0.00 88 1019.1
20260504080231 -39 7 0.0 0.0 0.00 0.00 0.00 88 1019.0
20260504070150 -39 7 0.0 0.0 0.00 0.00 0.00 88 1019.1
20260504060142 -39 7 0.0 0.0 0.00 0.00 0.00 88 1019.1
20260504050133 -39 7 0.0 0.0 0.00 0.00 0.00 88 1019.1
20260504044630 -39 7 0.0 0.0 0.00 0.00 0.00 88 1019.0
20260504043129 -39 7 0.0 0.0 0.00 0.00 0.00 88 1018.7
20260504041628 -39 7 0.0 0.0 0.00 0.00 0.00 88 1018.6
20260504040129 -39 7 0.0 0.0 0.00 0.00 0.00 88 1018.6
20260504034622 -39 7 0.0 0.0 0.00 0.00 0.00 88 1018.5
20260504033118 -39 7 0.0 0.0 0.00 0.00 0.00 88 1018.4
20260504031615 -39 7 0.0 0.0 0.00 0.00 0.00 88 1018.4
20260504030839 -39 7 0.0 0.0 0.00 0.00 0.00 88 1018.3
20260504024557 -39 7 0.0 0.0 0.00 0.00 0.00 88 1018.4
20260504023054 -39 7 0.0 0.0 0.00 0.00 0.00 88 1018.4
20260504021548 -39 7 0.0 0.0 0.00 0.00 0.00 88 1018.4
20260504020044 -39 7 0.0 0.0 0.00 0.00 0.00 88 1018.3
20260504014545 -39 7 0.0 1.7 0.00 0.00 0.00 88 1018.2
20260504013750 -39 7 0.0 0.0 0.00 0.00 0.00 88 1018.1
20260504011512 -39 7 0.0 0.0 0.00 0.00 0.00 88 1017.8
20260504010005 -39 7 0.0 0.0 0.00 0.00 0.00 88 1017.7
20260504004502 -39 7 0.0 0.0 0.00 0.00 0.00 88 1017.5
20260504002954 -39 7 0.0 0.0 0.00 0.00 0.00 88 1017.2
20260504001447 -39 7 0.0 0.0 0.00 0.00 0.00 88 1017.1
20260503235941 -39 7 0.0 3.5 0.00 0.00 0.00 88 1017.0
20260503234435 -39 16 0.0 4.3 0.00 0.00 0.00 88 1016.9
20260503233656 -39 12 0.0 2.6 0.00 0.00 0.00 88 1016.8
20260503231415 -39 24 2.6 5.2 0.00 0.00 0.00 88 1016.7
20260503225912 -39 20 3.5 7.0 0.00 0.00 0.00 88 1016.6
20260503224410 -39 10 3.5 5.2 0.00 0.00 0.00 88 1016.6
20260503222910 -39 25 3.5 7.8 0.00 0.00 0.00 88 1016.7
20260503221410 -39 29 3.5 9.6 0.00 0.00 0.00 88 1016.7
20260503215910 -39 13 3.5 7.0 0.00 0.00 0.00 88 1016.7
20260503215143 -39 23 3.5 7.0 0.00 0.00 0.00 88 1016.6
20260503212911 -39 4 4.3 9.6 0.00 0.00 0.00 88 1016.5
20260503211411 -39 9 4.3 8.7 0.00 0.00 0.00 88 1016.6
20260503205910 -39 22 3.5 7.0 0.00 0.00 0.00 88 1016.6
20260503205142 -39 355 4.3 12.2 0.00 0.00 0.00 88 1016.7
20260503202911 -39 17 4.3 13.0 0.00 0.00 0.00 88 1016.8
20260503201411 -39 36 2.6 10.4 0.00 0.00 0.00 88 1017.1
20260503195908 -39 31 4.3 9.6 0.00 0.00 0.00 88 1017.1
20260503194408 -39 50 2.6 9.6 0.00 0.00 0.00 88 1017.1
20260503192907 -39 354 5.2 10.4 0.00 0.00 0.00 88 1017.3
20260503191409 -39 15 5.2 12.2 0.00 0.00 0.00 88 1017.4
20260503185908 -39 10 5.2 11.3 0.00 0.00 0.00 88 1017.5
20260503184407 -39 22 4.3 11.3 0.00 0.00 0.00 88 1017.7
20260503182908 -39 50 5.2 9.6 0.00 0.00 0.00 88 1017.7
20260503181405 -39 31 6.1 12.2 0.00 0.00 0.00 88 1018.0
20260503175906 -39 14 5.2 12.2 0.00 0.00 0.00 88 1018.0
20260503174406 -39 11 4.3 11.3 0.00 0.00 0.00 88 1017.8
20260503172903 -39 24 5.2 10.4 0.00 0.00 0.00 88 1018.2
20260503171404 -39 78 4.3 8.7 0.00 0.00 0.00 88 1018.2
20260503170633 -39 3 4.3 10.4 0.00 0.00 0.00 88 1018.2